Regional Weather Roundup
Issued by NWS Burlington, VT

Home | Current Version | Previous Version | Text Only | Print | Product List | Glossary On
Versions: 1 2 3 4 5 6 7 8 9 10 11 12 13 14 15 16 17 18 19 20 21 22 23 24 25 26 27 28 29 30 31 32 33 34 35 36 37 38 39 40 41 42 43 44 45 46 47 48 49 50
000
ASUS41 KBTV 311130
RWRBTV
VERMONT REGIONAL WEATHER ROUNDUP
NATIONAL WEATHER SERVICE BURLINGTON VT
700 AM EDT FRI JUL 31 2015

NOTE: "FAIR" INDICATES FEW OR NO CLOUDS BELOW 12,000 FEET WITH NO
SIGNIFICANT WEATHER AND/OR OBSTRUCTIONS TO VISIBILITY.

* THESE REPORTS ARE NOT UNDER NWS QUALITY CONTROL AND/OR DO NOT
  REPORT WEATHER SUCH AS PRECIPITATION AND FOG.

VTZ001>019-311200-
_____VERMONT_____


CITY           SKY/WX    TMP DP  RH WIND       PRES   REMARKS
BURLINGTON     MOSUNNY   67  59  75 SW6       29.76R
MONTPELIER     PTSUNNY   65  57  75 CALM      29.82R
MORRISVILLE    PTSUNNY   64  57  78 S3        29.78R
ST. JOHNSBURY*   N/A     62  60  93 MISG      29.75S
LYNDONVILLE*   FOG       60  59  97 CALM      29.80R VSB 1
MIDDLEBURY*    FAIR      67  63  87 S6        29.79R
SPRINGFIELD    FOG       59  59 100 CALM      29.82R VSB<1/4
HIGHGATE*      FAIR      70  57  64 SW8       29.74S
NEWPORT*       FAIR      65  56  72 SW8       29.77S
BENNINGTON     SUNNY     62  59  90 CALM      29.85R
SUTTON*          N/A     61 N/A N/A MISG        N/A
GALLUP MILLS*    N/A     55 N/A N/A MISG        N/A
MT. MANSFIELD*   N/A     54 N/A N/A NW22        N/A

_____LAKE CHAMPLAIN_____


CITY           SKY/WX    TMP DP  RH WIND       PRES   REMARKS
COLCHESTER RF*   N/A     72  57  60 W17         N/A
DIAMOND ISL*     N/A     68  61  77 SW3         N/A

$$

NYZ007-026>031-035-052-083-311200-
_____NORTHERN NEW YORK_____


CITY           SKY/WX    TMP DP  RH WIND       PRES   REMARKS
PLATTSBURGH    SUNNY     65  59  81 CALM      29.75R
SARANAC LAKE   SUNNY     61  56  83 SW8       29.81R
MASSENA        CLOUDY    66  57  72 W6        29.77R
OGDENSBURG*    SUNNY     66  59  77 W6        29.79R
POTSDAM*       SUNNY     64  61  88 W10       29.80R
STARK FALLS*     N/A     66 N/A N/A SW7         N/A
WATERTOWN      SUNNY     67  57  70 W6        29.83R
FT DRUM        SUNNY     65  57  75 W8        29.83R
ALBANY         MOSUNNY   70  59  68 W10       29.83R
GLENS FALLS    SUNNY     63  60  90 CALM      29.80S

$$
NHZ002-005-011-311200-
_____NEW HAMPSHIRE_____


CITY           SKY/WX    TMP DP  RH WIND       PRES   REMARKS
LEBANON        MOSUNNY   62  60  93 CALM      29.79S FOG
KEENE          CLOUDY    61  55  82 CALM      29.83R VSB<1/4
MT WASHINGTON  FOG       46  46 100 W53         N/A  VSB 0
PLYMOUTH       FOG       61  61 100 CALM      29.79R VSB 1/2
WHITEFIELD     SUNNY     60  58  92 CALM      29.78R

$$

_____REGIONAL QUEBEC LOCATIONS_____


CITY           SKY/WX    TMP DP  RH WIND       PRES   REMARKS
MONTREAL       MOSUNNY   66  57  72 SW13      29.71R
QUEBEC CITY    PTSUNNY   66  66 100 SW5       29.65R
SHERBROOKE     SUNNY     66  59  77 S8        29.73R

_____REGIONAL ONTARIO LOCATIONS_____


CITY           SKY/WX    TMP DP  RH WIND       PRES   REMARKS
OTTAWA         MOSUNNY   68  57  68 W10       29.77R

______KEY______
VSB  - VISIBILITY IN MILES
WCI  - WIND CHILL INDEX
HX   - HEAT INDEX
$$
NNNN


USA.gov is the U.S. government's official web portal to all federal, state and local government web resources and services.